This is the latest recevied weather packets stored in our database for station/object N4NVD-13. If no packets are shown the sender has not sent any weather packets the latest 1 day(s).
| Time | Temp. | Humidity | Pressure | Rain* | Wind** | Luminosity | Snow |
|---|---|---|---|---|---|---|---|
| 1778115190 | 17.78° C | 89% | 1011.2 hPa | 0 mm | - | 0 W/m² | - |
| 1778114881 | 17.78° C | 89% | 1011.3 hPa | 0 mm | - | 0 W/m² | - |
| 1778113970 | 17.78° C | 88% | 1011.4 hPa | 0 mm | - | 7 W/m² | - |
| 1778113666 | 17.78° C | 89% | 1011.3 hPa | 0 mm | - | 9 W/m² | - |
| 1778113362 | 17.78° C | 89% | 1011 hPa | 0 mm | - | 15 W/m² | - |
| 1778113059 | 17.78° C | 88% | 1011 hPa | 0 mm | - | 16 W/m² | - |
| 1778112757 | 17.78° C | 88% | 1011 hPa | 0 mm | - | 18 W/m² | - |
| 1778111846 | 18.33° C | 87% | 1011 hPa | 0 mm | - | 35 W/m² | - |
| 1778110026 | 18.89° C | 86% | 1010.3 hPa | 0 mm | - | 86 W/m² | - |
| 1778109721 | 19.44° C | 85% | 1010.5 hPa | 0 mm | - | 98 W/m² | - |
| 1778109117 | 20° C | 84% | 1010.3 hPa | 0 mm | - | 99 W/m² | - |
| 1778108510 | 20° C | 84% | 1010.1 hPa | 0 mm | - | 142 W/m² | - |
| 1778107600 | 20.56° C | 83% | 1010.3 hPa | 0 mm | - | 224 W/m² | - |
| 1778106993 | 20.56° C | 83% | 1010.1 hPa | 0 mm | - | 126 W/m² | - |
| 1778106689 | 21.11° C | 83% | 1010.3 hPa | 0 mm | - | 124 W/m² | - |
| 1778106386 | 21.11° C | 82% | 1010.4 hPa | 0 mm | - | 171 W/m² | - |
| 1778104262 | 21.11° C | 84% | 1010.3 hPa | 0 mm | - | 139 W/m² | - |
| 1778102443 | 20.56° C | 85% | 1009.9 hPa | 0 mm | - | 106 W/m² | - |
| 1778101533 | 22.22° C | 84% | 1009.9 hPa | 0 mm | - | 170 W/m² | - |
| 1778100320 | 23.33° C | 85% | 1010 hPa | 0 mm | - | 89 W/m² | - |
| 1778099411 | 23.89° C | 85% | 1009.4 hPa | 0 mm | - | 103 W/m² | - |
| 1778098199 | 26.11° C | 84% | 1009.4 hPa | 0 mm | - | 196 W/m² | - |
| 1778097895 | 26.67° C | 84% | 1009.4 hPa | 0 mm | - | 415 W/m² | - |
| 1778097289 | 26.11° C | 84% | 1009.5 hPa | 0 mm | - | 360 W/m² | - |
| 1778096379 | 26.11° C | 83% | 1009.6 hPa | 0 mm | - | 653 W/m² | - |
* Rain latest hour (hover to see other rain measurements)
** Current wind speed in m/s (hover to see current wind gust speed)